,,PA_Meas_PMT16A,,PR_Meas_QMR101_102,,RH_Meas_QMH101,,SR_Meas_QMS101,,TA_Meas_QMH101,,GenWind,,GenWind,
time,status,PA,status,PR,status,RH,status,SR,status,TA,status,DirAvg,status,SpdAvg,
2012-03-27, 00:00:04,VALID,919.684,VALID,0,VALID,95.5748,VALID,0,VALID,20.6764,VALID,261,VALID,0.430078,
2012-03-27, 00:01:04,VALID,919.69,VALID,0,VALID,95.6967,VALID,0,VALID,20.6764,VALID,261,VALID,0.533984,
2012-03-27, 00:02:04,VALID,919.68,VALID,0,VALID,95.7501,VALID,0,VALID,20.6764,VALID,261,VALID,0.233203,
2012-03-27, 00:03:04,VALID,919.684,VALID,0,VALID,95.8111,VALID,0,VALID,20.6764,VALID,261,VALID,0.403906,
2012-03-27, 00:04:04,VALID,919.681,VALID,0,VALID,95.8721,VALID,0,VALID,20.6943,VALID,261,VALID,0.332422,
2012-03-27, 00:05:04,VALID,919.657,VALID,0,VALID,95.834,VALID,0,VALID,20.6943,VALID,261,VALID,0.457422,
2012-03-27, 00:06:04,VALID,919.662,VALID,0,VALID,95.8263,VALID,0,VALID,20.6959,VALID,261,VALID,0.586328,
2012-03-27, 00:07:04,VALID,919.633,VALID,0,VALID,95.8492,VALID,0,VALID,20.6959,VALID,261,VALID,0.614844,
2012-03-27, 00:08:04,VALID,919.616,VALID,0,VALID,95.8568,VALID,0,VALID,20.6959,VALID,261,VALID,0.393359,
2012-03-27, 00:09:04,VALID,919.591,VALID,0,VALID,95.8645,VALID,0,VALID,20.7138,VALID,261,VALID,0.578125,
2012-03-27, 00:10:04,VALID,919.583,VALID,0,VALID,95.8416,VALID,0,VALID,20.7349,VALID,261,VALID,0.494922,
2012-03-27, 00:11:04,VALID,919.538,VALID,0,VALID,95.8568,VALID,0,VALID,20.7154,VALID,261,VALID,0.730078,
2012-03-27, 00:12:04,VALID,919.552,VALID,0,VALID,95.8492,VALID,0,VALID,20.7349,VALID,261,VALID,0.296875,
2012-03-27, 00:13:04,VALID,919.548,VALID,0,VALID,95.834,VALID,0,VALID,20.7349,VALID,261,VALID,0.304688,
2012-03-27, 00:14:04,VALID,919.538,VALID,0,VALID,95.712,VALID,0,VALID,20.7544,VALID,261,VALID,0.699219,
2012-03-27, 00:15:04,VALID,919.546,VALID,0,VALID,95.6586,VALID,0,VALID,20.6748,VALID,261,VALID,0.778906,
2012-03-27, 00:16:04,VALID,919.524,VALID,0,VALID,95.6739,VALID,0,VALID,20.7154,VALID,261,VALID,0.884375,
2012-03-27, 00:17:04,VALID,919.508,VALID,0,VALID,95.6815,VALID,0,VALID,20.6764,VALID,261,VALID,0.890625,
2012-03-27, 00:18:04,VALID,919.496,VALID,0,VALID,95.6967,VALID,0,VALID,20.6569,VALID,261,VALID,0.885156,
2012-03-27, 00:19:04,VALID,919.507,VALID,0,VALID,95.7577,VALID,0,VALID,20.6374,VALID,261,VALID,0.965625,
2012-03-27, 00:20:04,VALID,919.478,VALID,0,VALID,95.7501,VALID,0,VALID,20.6374,VALID,261,VALID,0.908984,
2012-03-27, 00:21:04,VALID,919.477,VALID,0,VALID,95.7806,VALID,0,VALID,20.6179,VALID,261,VALID,0.677734,
2012-03-27, 00:22:04,VALID,919.423,VALID,0,VALID,95.8263,VALID,0,VALID,20.5789,VALID,261,VALID,0.550781,
2012-03-27, 00:23:04,VALID,919.442,VALID,0,VALID,95.8645,VALID,0,VALID,20.5789,VALID,261,VALID,0.166406,
2012-03-27, 00:24:04,VALID,919.428,VALID,0,VALID,95.8721,VALID,0,VALID,20.5789,VALID,261,VALID,0.163672,
2012-03-27, 00:25:04,VALID,919.41,VALID,0,VALID,95.8187,VALID,0,VALID,20.5789,VALID,261,VALID,0.318359,
2012-03-27, 00:26:04,VALID,919.381,VALID,0,VALID,95.773,VALID,0,VALID,20.5399,VALID,261,VALID,0.541797,
2012-03-27, 00:27:04,VALID,919.362,VALID,0,VALID,95.7501,VALID,0,VALID,20.5009,VALID,261,VALID,0.671484,
2012-03-27, 00:28:04,VALID,919.356,VALID,0,VALID,95.8263,VALID,0,VALID,20.5024,VALID,261,VALID,0.765625,
2012-03-27, 00:29:04,VALID,919.357,VALID,0,VALID,95.9102,VALID,0,VALID,20.4618,VALID,261,VALID,0.697266,
2012-03-27, 00:30:04,VALID,919.357,VALID,0,VALID,95.9788,VALID,0,VALID,20.4618,VALID,261,VALID,0.560547,
2012-03-27, 00:31:04,VALID,919.326,VALID,0,VALID,96.0093,VALID,0,VALID,20.4408,VALID,261,VALID,0.710547,
2012-03-27, 00:32:04,VALID,919.325,VALID,0,VALID,96.0322,VALID,0,VALID,20.4228,VALID,261,VALID,0.524609,
2012-03-27, 00:33:04,VALID,919.322,VALID,0,VALID,96.0855,VALID,0,VALID,20.4228,VALID,261,VALID,0.396484,
2012-03-27, 00:34:04,VALID,919.274,VALID,0,VALID,96.0932,VALID,0,VALID,20.4228,VALID,261,VALID,0.370703,
2012-03-27, 00:35:04,VALID,919.272,VALID,0,VALID,96.1389,VALID,0,VALID,20.4423,VALID,261,VALID,0.261719,
2012-03-27, 00:36:04,VALID,919.187,VALID,0,VALID,96.1389,VALID,0,VALID,20.4439,VALID,261,VALID,0.586719,
2012-03-27, 00:37:04,VALID,919.166,VALID,0,VALID,96.1618,VALID,0,VALID,20.4228,VALID,261,VALID,0.514453,
2012-03-27, 00:38:04,VALID,919.15,VALID,0,VALID,96.1618,VALID,0,VALID,20.4033,VALID,261,VALID,0.759375,
2012-03-27, 00:39:04,VALID,919.132,VALID,0,VALID,96.1846,VALID,0,VALID,20.4033,VALID,261,VALID,0.641797,
2012-03-27, 00:40:04,VALID,919.097,VALID,0,VALID,96.1999,VALID,0,VALID,20.4033,VALID,261,VALID,0.4875,
2012-03-27, 00:41:04,VALID,919.105,VALID,0,VALID,96.2456,VALID,0,VALID,20.3838,VALID,261,VALID,0.646875,
2012-03-27, 00:42:04,VALID,919.11,VALID,0,VALID,96.2609,VALID,0,VALID,20.4033,VALID,261,VALID,0.683203,
2012-03-27, 00:43:04,VALID,919.077,VALID,0,VALID,96.2914,VALID,0,VALID,20.3838,VALID,261,VALID,0.760547,
2012-03-27, 00:44:04,VALID,919.072,VALID,0,VALID,96.3142,VALID,0,VALID,20.4033,VALID,261,VALID,0.756641,
2012-03-27, 00:45:04,VALID,919.063,VALID,0,VALID,96.3295,VALID,0,VALID,20.3838,VALID,261,VALID,0.580469,
2012-03-27, 00:46:04,VALID,919.081,VALID,0,VALID,96.3524,VALID,0,VALID,20.3643,VALID,261,VALID,0.268359,
2012-03-27, 00:47:04,VALID,919.094,VALID,0,VALID,96.4057,VALID,0,VALID,20.3838,VALID,261,VALID,0.375,
2012-03-27, 00:48:04,VALID,919.091,VALID,0,VALID,96.4438,VALID,0,VALID,20.4033,VALID,261,VALID,0.393359,
2012-03-27, 00:49:04,VALID,919.1,VALID,0,VALID,96.4362,VALID,0,VALID,20.4018,VALID,261,VALID,0.43125,
2012-03-27, 00:50:04,VALID,919.113,VALID,0,VALID,96.4515,VALID,0,VALID,20.4228,VALID,261,VALID,0.601953,
2012-03-27, 00:51:04,VALID,919.13,VALID,0,VALID,96.4896,VALID,0,VALID,20.4213,VALID,261,VALID,0.00195313,
2012-03-27, 00:52:04,VALID,919.131,VALID,0,VALID,96.5048,VALID,0,VALID,20.4634,VALID,261,VALID,0.0621094,
2012-03-27, 00:53:04,VALID,919.118,VALID,0,VALID,96.4667,VALID,0,VALID,20.4423,VALID,261,VALID,0.23125,
2012-03-27, 00:54:04,VALID,919.126,VALID,0,VALID,96.4438,VALID,0,VALID,20.4018,VALID,261,VALID,0.346094,
2012-03-27, 00:55:04,VALID,919.112,VALID,0,VALID,96.4362,VALID,0,VALID,20.4228,VALID,261,VALID,0.285156,
2012-03-27, 00:56:04,VALID,919.121,VALID,0,VALID,96.4667,VALID,0,VALID,20.4228,VALID,261,VALID,0.464063,
2012-03-27, 00:57:04,VALID,919.126,VALID,0,VALID,96.4591,VALID,0,VALID,20.4228,VALID,261,VALID,0.311719,
2012-03-27, 00:58:04,VALID,919.122,VALID,0,VALID,96.4667,VALID,0,VALID,20.4228,VALID,261,VALID,0.494531,
2012-03-27, 00:59:04,VALID,919.124,VALID,0,VALID,96.4819,VALID,0,VALID,20.4033,VALID,261,VALID,0.168359,
2012-03-27, 01:00:04,VALID,919.147,VALID,0,VALID,96.4972,VALID,0,VALID,20.4228,VALID,261,VALID,0.368359,
2012-03-27, 01:01:04,VALID,919.169,VALID,0,VALID,96.4972,VALID,0,VALID,20.4228,VALID,261,VALID,0.0945313,
2012-03-27, 01:02:04,VALID,919.166,VALID,0,VALID,96.5506,VALID,0,VALID,20.4423,VALID,261,VALID,0,
2012-03-27, 01:03:04,VALID,919.182,VALID,0,VALID,96.5429,VALID,0,VALID,20.4618,VALID,261,VALID,0,
2012-03-27, 01:04:04,VALID,919.182,VALID,0,VALID,96.5277,VALID,0,VALID,20.4813,VALID,261,VALID,0,
2012-03-27, 01:05:04,VALID,919.185,VALID,0,VALID,96.4819,VALID,0,VALID,20.5219,VALID,261,VALID,0.0445312,
2012-03-27, 01:06:04,VALID,919.18,VALID,0,VALID,96.4667,VALID,0,VALID,20.5219,VALID,261,VALID,0.280078,
2012-03-27, 01:07:04,VALID,919.182,VALID,0,VALID,96.4743,VALID,0,VALID,20.5399,VALID,261,VALID,0,
2012-03-27, 01:08:04,VALID,919.197,VALID,0,VALID,96.4819,VALID,0,VALID,20.5804,VALID,261,VALID,0,
2012-03-27, 01:09:04,VALID,919.195,VALID,0,VALID,96.4591,VALID,0,VALID,20.6194,VALID,261,VALID,0.0644531,
2012-03-27, 01:10:04,VALID,919.197,VALID,0,VALID,96.4362,VALID,0,VALID,20.6179,VALID,261,VALID,0.139453,
2012-03-27, 01:11:04,VALID,919.181,VALID,0,VALID,96.3829,VALID,0,VALID,20.6569,VALID,261,VALID,0.248047,
2012-03-27, 01:12:04,VALID,919.175,VALID,0,VALID,96.2533,VALID,0,VALID,20.6569,VALID,261,VALID,0.183594,
2012-03-27, 01:13:04,VALID,919.157,VALID,0,VALID,96.299,VALID,0,VALID,20.6764,VALID,261,VALID,0.135156,
2012-03-27, 01:14:04,VALID,919.18,VALID,0,VALID,96.177,VALID,0,VALID,20.6959,VALID,261,VALID,0.00078125,
2012-03-27, 01:15:04,VALID,919.137,VALID,0,VALID,96.1236,VALID,0,VALID,20.7365,VALID,261,VALID,0.149219,
2012-03-27, 01:16:04,VALID,919.173,VALID,0,VALID,96.0627,VALID,0,VALID,20.7365,VALID,261,VALID,0.286328,
2012-03-27, 01:17:04,VALID,919.142,VALID,0,VALID,95.9864,VALID,0,VALID,20.7349,VALID,261,VALID,0.0683594,
2012-03-27, 01:18:04,VALID,919.147,VALID,0,VALID,95.9712,VALID,0,VALID,20.7544,VALID,261,VALID,0,
2012-03-27, 01:19:04,VALID,919.128,VALID,0,VALID,95.8873,VALID,0,VALID,20.7739,VALID,261,VALID,0.350391,
2012-03-27, 01:20:04,VALID,919.135,VALID,0,VALID,95.8035,VALID,0,VALID,20.8145,VALID,261,VALID,0,
2012-03-27, 01:21:04,VALID,919.118,VALID,0,VALID,95.7349,VALID,0,VALID,20.7934,VALID,261,VALID,0,
2012-03-27, 01:22:04,VALID,919.1,VALID,0,VALID,95.6281,VALID,0,VALID,20.7934,VALID,261,VALID,0.0699219,
2012-03-27, 01:23:04,VALID,919.061,VALID,0,VALID,95.5367,VALID,0,VALID,20.7739,VALID,261,VALID,0.217969,
2012-03-27, 01:24:04,VALID,919.063,VALID,0,VALID,95.4833,VALID,0,VALID,20.7755,VALID,261,VALID,0,
2012-03-27, 01:25:04,VALID,919.042,VALID,0,VALID,95.4604,VALID,0,VALID,20.7544,VALID,261,VALID,0,
2012-03-27, 01:26:04,VALID,919.045,VALID,0,VALID,95.4299,VALID,0,VALID,20.7349,VALID,261,VALID,0,
2012-03-27, 01:27:04,VALID,919.051,VALID,0,VALID,95.4452,VALID,0,VALID,20.7365,VALID,261,VALID,0,
2012-03-27, 01:28:04,VALID,919.022,VALID,0,VALID,95.4757,VALID,0,VALID,20.7154,VALID,261,VALID,0,
2012-03-27, 01:29:04,VALID,919.013,VALID,0,VALID,95.5138,VALID,0,VALID,20.7154,VALID,261,VALID,0,
2012-03-27, 01:30:04,VALID,919.014,VALID,0,VALID,95.5443,VALID,0,VALID,20.7154,VALID,261,VALID,0,
2012-03-27, 01:31:04,VALID,919.007,VALID,0,VALID,95.4223,VALID,0,VALID,20.6764,VALID,261,VALID,0,
2012-03-27, 01:32:04,VALID,918.992,VALID,0,VALID,95.3537,VALID,0,VALID,20.6764,VALID,261,VALID,0.298047,
2012-03-27, 01:33:04,VALID,919.022,VALID,0,VALID,95.2241,VALID,0,VALID,20.6179,VALID,261,VALID,0.366406,
2012-03-27, 01:34:04,VALID,919.013,VALID,0,VALID,95.2622,VALID,0,VALID,20.5789,VALID,261,VALID,0.365625,
2012-03-27, 01:35:04,VALID,919.023,VALID,0,VALID,95.3842,VALID,0,VALID,20.5594,VALID,261,VALID,0.532422,
2012-03-27, 01:36:04,VALID,919.003,VALID,0,VALID,95.468,VALID,0,VALID,20.5609,VALID,261,VALID,0.690234,
2012-03-27, 01:37:04,VALID,919.052,VALID,0,VALID,95.5214,VALID,0,VALID,20.5204,VALID,261,VALID,0.501953,
2012-03-27, 01:38:04,VALID,919.018,VALID,0,VALID,95.5671,VALID,0,VALID,20.4618,VALID,261,VALID,0.5375,
2012-03-27, 01:39:04,VALID,919.068,VALID,0,VALID,95.6357,VALID,0,VALID,20.4228,VALID,261,VALID,0.619922,
2012-03-27, 01:40:04,VALID,919.072,VALID,0,VALID,95.712,VALID,0,VALID,20.4228,VALID,261,VALID,0.787891,
2012-03-27, 01:41:04,VALID,919.051,VALID,0,VALID,95.7958,VALID,0,VALID,20.4033,VALID,261,VALID,0.70625,
2012-03-27, 01:42:04,VALID,919.073,VALID,0,VALID,95.8645,VALID,0,VALID,20.4033,VALID,261,VALID,0.348047,
2012-03-27, 01:43:04,VALID,919.081,VALID,0,VALID,95.9178,VALID,0,VALID,20.3838,VALID,261,VALID,0.362109,
2012-03-27, 01:44:04,VALID,919.062,VALID,0,VALID,95.9788,VALID,0,VALID,20.3838,VALID,261,VALID,0.305469,
2012-03-27, 01:45:04,VALID,919.075,VALID,0,VALID,95.9941,VALID,0,VALID,20.3643,VALID,261,VALID,0.285937,
2012-03-27, 01:46:04,VALID,919.077,VALID,0,VALID,96.0017,VALID,0,VALID,20.3448,VALID,261,VALID,0.485547,
2012-03-27, 01:47:04,VALID,919.077,VALID,0,VALID,96.0245,VALID,0,VALID,20.3448,VALID,261,VALID,0.623438,
2012-03-27, 01:48:04,VALID,919.068,VALID,0,VALID,96.1084,VALID,0,VALID,20.3659,VALID,261,VALID,0.859766,
2012-03-27, 01:49:04,VALID,919.074,VALID,0,VALID,96.1618,VALID,0,VALID,20.3253,VALID,261,VALID,0.839844,
2012-03-27, 01:50:04,VALID,919.078,VALID,0,VALID,96.1999,VALID,0,VALID,20.3659,VALID,261,VALID,0.673437,
2012-03-27, 01:51:05,VALID,919.079,VALID,0,VALID,96.2609,VALID,0,VALID,20.3253,VALID,261,VALID,0.885938,
2012-03-27, 01:52:05,VALID,919.094,VALID,0,VALID,96.2685,VALID,0,VALID,20.3253,VALID,261,VALID,0.640625,
2012-03-27, 01:53:05,VALID,919.061,VALID,0,VALID,96.3219,VALID,0,VALID,20.3253,VALID,261,VALID,0.773828,
2012-03-27, 01:54:05,VALID,919.075,VALID,0,VALID,96.3524,VALID,0,VALID,20.3238,VALID,261,VALID,0.894922,
2012-03-27, 01:55:05,VALID,919.07,VALID,0,VALID,96.3981,VALID,0,VALID,20.3043,VALID,261,VALID,0.690625,
2012-03-27, 01:56:05,VALID,919.064,VALID,0,VALID,96.4286,VALID,0,VALID,20.3043,VALID,261,VALID,0.962891,
2012-03-27, 01:57:05,VALID,919.054,VALID,0,VALID,96.4743,VALID,0,VALID,20.3043,VALID,261,VALID,0.636719,
2012-03-27, 01:58:05,VALID,919.014,VALID,0,VALID,96.5201,VALID,0,VALID,20.3043,VALID,261,VALID,0.510547,
2012-03-27, 01:59:05,VALID,918.998,VALID,0,VALID,96.5506,VALID,0,VALID,20.3253,VALID,261,VALID,0.451172,
2012-03-27, 02:00:05,VALID,918.942,VALID,0,VALID,96.5887,VALID,0,VALID,20.3238,VALID,261,VALID,0.318359,
2012-03-27, 02:01:05,VALID,918.939,VALID,0,VALID,96.6192,VALID,0.107441,VALID,20.3238,VALID,261,VALID,0.440625,
2012-03-27, 02:02:05,VALID,918.881,VALID,0,VALID,96.6039,VALID,0,VALID,20.3238,VALID,261,VALID,0.734766,
2012-03-27, 02:03:05,VALID,918.865,VALID,0,VALID,96.6344,VALID,0,VALID,20.3448,VALID,261,VALID,0.729688,
2012-03-27, 02:04:05,VALID,918.815,VALID,0,VALID,96.6649,VALID,0.107441,VALID,20.3238,VALID,261,VALID,0.88125,
2012-03-27, 02:05:05,VALID,918.806,VALID,0,VALID,96.6878,VALID,0,VALID,20.3238,VALID,261,VALID,0.814062,
2012-03-27, 02:06:05,VALID,918.759,VALID,0,VALID,96.6878,VALID,0.107441,VALID,20.3253,VALID,261,VALID,0.841016,
2012-03-27, 02:07:05,VALID,918.729,VALID,0,VALID,96.7183,VALID,0.107441,VALID,20.3043,VALID,261,VALID,0.966406,
2012-03-27, 02:08:05,VALID,918.736,VALID,0,VALID,96.7335,VALID,0,VALID,20.3043,VALID,261,VALID,0.73125,
2012-03-27, 02:09:05,VALID,918.696,VALID,0,VALID,96.7488,VALID,0,VALID,20.3058,VALID,261,VALID,0.830078,
2012-03-27, 02:10:05,VALID,918.704,VALID,0,VALID,96.7411,VALID,0,VALID,20.3058,VALID,261,VALID,0.766406,
2012-03-27, 02:11:05,VALID,918.695,VALID,0,VALID,96.764,VALID,0,VALID,20.3058,VALID,261,VALID,0.740625,
2012-03-27, 02:12:05,VALID,918.714,VALID,0,VALID,96.7564,VALID,0,VALID,20.3058,VALID,261,VALID,0.742969,
2012-03-27, 02:13:05,VALID,918.702,VALID,0,VALID,96.825,VALID,0,VALID,20.2863,VALID,261,VALID,0.488672,
2012-03-27, 02:14:05,VALID,918.702,VALID,0,VALID,96.8479,VALID,0,VALID,20.3058,VALID,261,VALID,0.627734,
2012-03-27, 02:15:05,VALID,918.693,VALID,0,VALID,96.825,VALID,0,VALID,20.2863,VALID,261,VALID,0.642187,
2012-03-27, 02:16:05,VALID,918.698,VALID,0,VALID,96.8326,VALID,0,VALID,20.2863,VALID,261,VALID,0.432031,
2012-03-27, 02:17:05,VALID,918.694,VALID,0,VALID,96.8555,VALID,0,VALID,20.2863,VALID,261,VALID,0.396875,
2012-03-27, 02:18:05,VALID,918.677,VALID,0,VALID,96.886,VALID,0,VALID,20.3058,VALID,261,VALID,0.222266,
2012-03-27, 02:19:05,VALID,918.679,VALID,0,VALID,96.8707,VALID,0,VALID,20.3058,VALID,261,VALID,0.490234,
2012-03-27, 02:20:05,VALID,918.672,VALID,0,VALID,96.9012,VALID,0,VALID,20.3058,VALID,261,VALID,0.196094,
2012-03-27, 02:21:05,VALID,918.68,VALID,0,VALID,96.9317,VALID,0,VALID,20.3253,VALID,261,VALID,0,
2012-03-27, 02:22:05,VALID,918.662,VALID,0,VALID,96.9546,VALID,0,VALID,20.3448,VALID,261,VALID,0.264844,
2012-03-27, 02:23:05,VALID,918.635,VALID,0,VALID,96.947,VALID,0,VALID,20.3854,VALID,261,VALID,0.382031,
2012-03-27, 02:24:05,VALID,918.627,VALID,0,VALID,96.947,VALID,0,VALID,20.3659,VALID,261,VALID,0.597656,
2012-03-27, 02:25:05,VALID,918.587,VALID,0,VALID,96.947,VALID,0,VALID,20.3643,VALID,261,VALID,0.639844,
2012-03-27, 02:26:05,VALID,918.592,VALID,0,VALID,96.9394,VALID,0,VALID,20.3643,VALID,261,VALID,0.541016,
2012-03-27, 02:27:05,VALID,918.582,VALID,0,VALID,96.947,VALID,0,VALID,20.3448,VALID,261,VALID,0.459766,
2012-03-27, 02:28:05,VALID,918.545,VALID,0,VALID,96.9241,VALID,0,VALID,20.3448,VALID,261,VALID,0.573438,
2012-03-27, 02:29:05,VALID,918.529,VALID,0,VALID,96.9394,VALID,0,VALID,20.3448,VALID,261,VALID,0.689844,
2012-03-27, 02:30:05,VALID,918.513,VALID,0,VALID,96.9317,VALID,0,VALID,20.3253,VALID,261,VALID,0.885938,
2012-03-27, 02:31:05,VALID,918.476,VALID,0,VALID,96.9394,VALID,0,VALID,20.3058,VALID,261,VALID,0.803516,
2012-03-27, 02:32:05,VALID,918.476,VALID,0,VALID,96.9546,VALID,0,VALID,20.3253,VALID,261,VALID,0.789844,
2012-03-27, 02:33:05,VALID,918.457,VALID,0,VALID,96.9698,VALID,0,VALID,20.3448,VALID,261,VALID,0.557031,
2012-03-27, 02:34:05,VALID,918.453,VALID,0,VALID,96.9698,VALID,0,VALID,20.3253,VALID,261,VALID,0.291406,
2012-03-27, 02:35:05,VALID,918.462,VALID,0,VALID,96.9775,VALID,0,VALID,20.3253,VALID,261,VALID,0.395703,
2012-03-27, 02:36:05,VALID,918.439,VALID,0,VALID,96.9851,VALID,0,VALID,20.3253,VALID,261,VALID,0,
2012-03-27, 02:37:05,VALID,918.418,VALID,0,VALID,96.9622,VALID,0,VALID,20.3253,VALID,261,VALID,0.180469,
2012-03-27, 02:38:05,VALID,918.402,VALID,0,VALID,96.9698,VALID,0,VALID,20.3058,VALID,261,VALID,0.485156,
2012-03-27, 02:39:05,VALID,918.387,VALID,0,VALID,96.9698,VALID,0,VALID,20.3253,VALID,261,VALID,0,
2012-03-27, 02:40:05,VALID,918.362,VALID,0,VALID,97.0003,VALID,0,VALID,20.3253,VALID,261,VALID,0.394531,
2012-03-27, 02:41:05,VALID,918.352,VALID,0,VALID,96.9851,VALID,0,VALID,20.3269,VALID,261,VALID,0.255078,
2012-03-27, 02:42:05,VALID,918.378,VALID,0,VALID,96.9775,VALID,0,VALID,20.3058,VALID,261,VALID,0.400391,
2012-03-27, 02:43:05,VALID,918.358,VALID,0,VALID,96.9851,VALID,0,VALID,20.3058,VALID,261,VALID,0.345313,
2012-03-27, 02:44:05,VALID,918.363,VALID,0,VALID,96.9851,VALID,0,VALID,20.3269,VALID,261,VALID,0.344531,
2012-03-27, 02:45:05,VALID,918.372,VALID,0,VALID,97.008,VALID,0,VALID,20.3269,VALID,261,VALID,0.0195313,
2012-03-27, 02:46:05,VALID,918.388,VALID,0,VALID,97.0003,VALID,0,VALID,20.3269,VALID,261,VALID,0.377344,
2012-03-27, 02:47:05,VALID,918.359,VALID,0,VALID,96.947,VALID,0,VALID,20.3269,VALID,261,VALID,0.473047,
2012-03-27, 02:48:05,VALID,918.371,VALID,0,VALID,96.9394,VALID,0,VALID,20.2879,VALID,261,VALID,0.655078,
2012-03-27, 02:49:05,VALID,918.395,VALID,0,VALID,96.9165,VALID,0,VALID,20.2879,VALID,261,VALID,0.754687,
2012-03-27, 02:50:05,VALID,918.403,VALID,0,VALID,96.9622,VALID,0,VALID,20.3074,VALID,261,VALID,0.868359,
2012-03-27, 02:51:05,VALID,918.43,VALID,0,VALID,96.9317,VALID,0,VALID,20.2879,VALID,261,VALID,0.787109,
2012-03-27, 02:52:05,VALID,918.44,VALID,0,VALID,96.9089,VALID,0,VALID,20.2879,VALID,266,VALID,0.976563,
2012-03-27, 02:53:05,VALID,918.45,VALID,0,VALID,96.9012,VALID,0,VALID,20.2684,VALID,84,VALID,1.05469,
2012-03-27, 02:54:05,VALID,918.442,VALID,0,VALID,96.9012,VALID,0.107441,VALID,20.2263,VALID,84,VALID,0.745703,
2012-03-27, 02:55:05,VALID,918.48,VALID,0,VALID,96.886,VALID,0,VALID,20.1873,VALID,84,VALID,0.854297,
2012-03-27, 02:56:05,VALID,918.504,VALID,0,VALID,96.9241,VALID,0,VALID,20.1873,VALID,84,VALID,0.717969,
2012-03-27, 02:57:05,VALID,918.516,VALID,0,VALID,96.9241,VALID,0,VALID,20.1873,VALID,84,VALID,0.938672,
2012-03-27, 02:58:05,VALID,918.564,VALID,0,VALID,96.9089,VALID,0,VALID,20.1678,VALID,84,VALID,0.707031,
2012-03-27, 02:59:05,VALID,918.524,VALID,0,VALID,96.947,VALID,0,VALID,20.1678,VALID,84,VALID,0.527734,
2012-03-27, 03:00:05,VALID,918.552,VALID,0,VALID,96.9622,VALID,0,VALID,20.1888,VALID,84,VALID,0.648828,
2012-03-27, 03:01:05,VALID,918.57,VALID,0,VALID,96.9851,VALID,0,VALID,20.1678,VALID,84,VALID,0.0917969,
2012-03-27, 03:02:05,VALID,918.533,VALID,0,VALID,96.9927,VALID,0,VALID,20.1678,VALID,84,VALID,0.305469,
2012-03-27, 03:03:05,VALID,918.535,VALID,0,VALID,97.0308,VALID,0,VALID,20.1873,VALID,84,VALID,0,
2012-03-27, 03:04:05,VALID,918.543,VALID,0,VALID,97.0156,VALID,0.107441,VALID,20.2083,VALID,84,VALID,0,
2012-03-27, 03:05:05,VALID,918.521,VALID,0,VALID,97.0308,VALID,0.107441,VALID,20.2278,VALID,84,VALID,0.0433594,
2012-03-27, 03:06:05,VALID,918.573,VALID,0,VALID,97.0232,VALID,0.107441,VALID,20.2473,VALID,84,VALID,0,
2012-03-27, 03:07:05,VALID,918.547,VALID,0,VALID,97.0308,VALID,0,VALID,20.2668,VALID,84,VALID,0,
2012-03-27, 03:08:05,VALID,918.539,VALID,0,VALID,97.0232,VALID,0,VALID,20.2668,VALID,84,VALID,0.295703,
2012-03-27, 03:09:05,VALID,918.557,VALID,0,VALID,97.008,VALID,0,VALID,20.2458,VALID,84,VALID,0.2625,
2012-03-27, 03:10:05,VALID,918.557,VALID,0,VALID,97.008,VALID,0,VALID,20.2653,VALID,84,VALID,0.280859,
2012-03-27, 03:11:05,VALID,918.561,VALID,0,VALID,97.0156,VALID,0,VALID,20.2863,VALID,84,VALID,0.498828,
2012-03-27, 03:12:05,VALID,918.551,VALID,0,VALID,97.0003,VALID,0,VALID,20.2848,VALID,84,VALID,0.384766,
2012-03-27, 03:13:05,VALID,918.562,VALID,0,VALID,97.0003,VALID,0.107441,VALID,20.2848,VALID,84,VALID,0.373047,
2012-03-27, 03:14:05,VALID,918.561,VALID,0,VALID,97.008,VALID,0.107441,VALID,20.2848,VALID,84,VALID,0.501953,
2012-03-27, 03:15:05,VALID,918.577,VALID,0,VALID,96.9927,VALID,0,VALID,20.2848,VALID,91,VALID,0.598047,
2012-03-27, 03:16:05,VALID,918.576,VALID,0,VALID,96.9775,VALID,0,VALID,20.2653,VALID,106,VALID,0.376563,
2012-03-27, 03:17:05,VALID,918.596,VALID,0,VALID,96.9546,VALID,0,VALID,20.2863,VALID,106,VALID,0.255469,
2012-03-27, 03:18:05,VALID,918.595,VALID,0,VALID,96.9775,VALID,0,VALID,20.2848,VALID,106,VALID,0,
2012-03-27, 03:19:05,VALID,918.596,VALID,0,VALID,97.0003,VALID,0,VALID,20.2848,VALID,106,VALID,0.00742187,
2012-03-27, 03:20:05,VALID,918.575,VALID,0,VALID,97.0003,VALID,0.107441,VALID,20.3043,VALID,106,VALID,0.284766,
2012-03-27, 03:21:05,VALID,918.611,VALID,0,VALID,96.9851,VALID,0,VALID,20.3043,VALID,106,VALID,0.184766,
2012-03-27, 03:22:05,VALID,918.605,VALID,0,VALID,96.9851,VALID,0.107441,VALID,20.3238,VALID,106,VALID,0,
2012-03-27, 03:23:05,VALID,918.598,VALID,0,VALID,96.9927,VALID,0.107441,VALID,20.3433,VALID,106,VALID,0,
2012-03-27, 03:24:05,VALID,918.605,VALID,0,VALID,96.9927,VALID,0,VALID,20.3643,VALID,106,VALID,0.239844,
2012-03-27, 03:25:05,VALID,918.611,VALID,0,VALID,96.9622,VALID,0,VALID,20.3643,VALID,106,VALID,0.426562,
2012-03-27, 03:26:05,VALID,918.612,VALID,0,VALID,96.9698,VALID,0,VALID,20.3854,VALID,106,VALID,0.433984,
2012-03-27, 03:27:05,VALID,918.61,VALID,0,VALID,96.9089,VALID,0,VALID,20.3643,VALID,106,VALID,0.691797,
2012-03-27, 03:28:05,VALID,918.584,VALID,0,VALID,96.886,VALID,0,VALID,20.3448,VALID,106,VALID,0.839844,
2012-03-27, 03:29:05,VALID,918.571,VALID,0,VALID,96.8784,VALID,0,VALID,20.3058,VALID,106,VALID,0.722656,
2012-03-27, 03:30:05,VALID,918.573,VALID,0,VALID,96.9012,VALID,0,VALID,20.3074,VALID,106,VALID,0.464453,
2012-03-27, 03:31:05,VALID,918.572,VALID,0,VALID,96.9012,VALID,0,VALID,20.3058,VALID,106,VALID,0.505859,
2012-03-27, 03:32:05,VALID,918.569,VALID,0,VALID,96.947,VALID,0,VALID,20.3253,VALID,106,VALID,0.227734,
2012-03-27, 03:33:05,VALID,918.55,VALID,0,VALID,96.9241,VALID,0,VALID,20.3253,VALID,106,VALID,0.525781,
2012-03-27, 03:34:05,VALID,918.545,VALID,0,VALID,96.9241,VALID,0,VALID,20.3659,VALID,106,VALID,0.000390625,
2012-03-27, 03:35:05,VALID,918.548,VALID,0,VALID,96.8707,VALID,0,VALID,20.3253,VALID,106,VALID,0.814844,
2012-03-27, 03:36:05,VALID,918.522,VALID,0,VALID,96.8784,VALID,0,VALID,20.3253,VALID,106,VALID,0.773828,
2012-03-27, 03:37:05,VALID,918.5,VALID,0,VALID,96.886,VALID,0,VALID,20.3058,VALID,106,VALID,0.437891,
2012-03-27, 03:38:05,VALID,918.499,VALID,0,VALID,96.886,VALID,0,VALID,20.3253,VALID,106,VALID,0.451562,
2012-03-27, 03:39:05,VALID,918.516,VALID,0,VALID,96.8936,VALID,0.107441,VALID,20.3238,VALID,106,VALID,0.467969,
2012-03-27, 03:40:05,VALID,918.541,VALID,0,VALID,96.8631,VALID,0,VALID,20.3238,VALID,106,VALID,0.0078125,
2012-03-27, 03:41:05,VALID,918.504,VALID,0,VALID,96.9165,VALID,0.107441,VALID,20.3433,VALID,106,VALID,0.0625,
2012-03-27, 03:42:05,VALID,918.521,VALID,0,VALID,96.8707,VALID,0,VALID,20.3238,VALID,106,VALID,0.130469,
2012-03-27, 03:43:05,VALID,918.508,VALID,0,VALID,96.8784,VALID,0.107441,VALID,20.3238,VALID,106,VALID,0.0515625,
2012-03-27, 03:44:05,VALID,918.491,VALID,0,VALID,96.8631,VALID,0,VALID,20.3238,VALID,106,VALID,0.566797,